Regional Weather Roundup
Issued by NWS Jackson, KY

Home | Current Version | Previous Version | Text Only | Print | Product List | Glossary On
Versions: 1 2 3 4 5 6 7 8 9 10 11 12 13 14 15 16 17 18 19 20 21 22 23 24 25 26 27 28 29 30 31 32 33 34 35 36 37 38 39 40 41 42 43 44 45 46 47 48 49 50
000
ASUS43 KJKL 281819
RWRJKL

EAST KENTUCKY HOURLY WEATHER ROUNDUP
NATIONAL WEATHER SERVICE JACKSON KY
100 PM EST SUN DEC 28 2014

NOTE: "FAIR" INDICATES FEW OR NO CLOUDS BELOW 12,000 FEET WITH
NO SIGNIFICANT WEATHER AND/OR OBSTRUCTIONS TO VISIBILITY.

* THESE REPORTS ARE NOT UNDER NWS QUALITY CONTROL AND MAY NOT
  REPORT WEATHER SUCH AS PRECIPITATION AND FOG.

KYZ079-080-083-085-087-088-110-112-115-119-120-281900
...EASTERN KENTUCKY...

CITY           SKY/WX    TMP DP  RH WIND       PRES   REMARKS
JACKSON        CLOUDY    42  40  92 VRB3      30.06F
6HR MIN TEMP:  42; 6HR MAX TEMP:  47; 6HR PCP:  0.24;

LONDON         LGT RAIN  45  39  79 NW7       30.10S
6HR MIN TEMP:  45; 6HR MAX TEMP:  48; 6HR PCP:  0.41;

SOMERSET*      DRIZZLE   41  41 100 NW5       30.15R
MONTICELLO*    CLOUDY    43  43 100 CALM      30.14F
6HR MIN TEMP:  43; 6HR MAX TEMP:  48; 6HR PCP:  0.31;

MIDDLESBORO*   DRIZZLE   49  48  97 CALM      30.08S
6HR MIN TEMP:  47; 6HR MAX TEMP:  49; 6HR PCP:  0.32;

HARLAN APT*    CLOUDY    46  46 100 CALM      30.05F
BLACK MTN*       N/A     43  43 100 CALM        N/A
PIKEVILLE APT* RAIN      46  46 100 CALM      30.05F
BIG SANDY*     DRIZZLE   44  43  97 N5        30.06F
6HR MIN TEMP:  44; 6HR MAX TEMP:  48;

MOREHEAD APT*  CLOUDY    39  37  93 W7        30.12F FOG     WCI  34
ASHLAND*       CLOUDY   N/A N/A N/A NW5       30.07F
$$

KYZ035-036-041-042-044-050-067-078-099-281900
...CENTRAL KENTUCKY...

CITY           SKY/WX    TMP DP  RH WIND       PRES   REMARKS
MT STERLING*   CLOUDY    37  36  93 CALM      30.12F
FLEMING/MASON* DRIZZLE   36  36 100 NW7       30.11F WCI  30
DANVILLE*      CLOUDY    37  36  93 NW3       30.13F
RICHMOND*      CLOUDY    39  37  93 CALM      30.11F
LEXINGTON      CLOUDY    37  36  96 NW7       30.12F FOG     WCI  32
6HR MIN TEMP:  37; 6HR MAX TEMP:  40;

FRANKFORT      CLOUDY    37  34  89 NW5       30.13S WCI  33
6HR MIN TEMP:  36; 6HR MAX TEMP:  39;

$$

KYZ091>093-OHZ055-061-077-WVZ005-015-034-035-042-281900
...SOUTHERN OHIO/WEST VIRGINIA...

CITY           SKY/WX    TMP DP  RH WIND       PRES   REMARKS
COVINGTON      CLOUDY    36  27  69 NW6       30.13F WCI  31
COLUMBUS       CLOUDY    37  31  78 NW7       30.09F WCI  32
DAYTON         CLOUDY    36  30  79 W5        30.11F WCI  32
WILMINGTON     CLOUDY    35  28  75 NW8       30.10F WCI  29
HUNTINGTON     CLOUDY    40  39  97 NW5       30.07F
CHARLESTON     LGT RAIN  43  42  97 VRB6      30.05S VSB 1
PINEVILLE*     LGT RAIN  49  49 100 MISG      30.08F
BECKLEY        LGT RAIN  46  43  89 W5        30.02F FOG
BLUEFIELD      LGT RAIN  47  43  86 W9        30.03F
$$

VAZ002-007-008-TNZ017-027-036-066-071-281900
...SOUTHWEST VIRGINIA/EAST TENNESSEE...

CITY           SKY/WX    TMP DP  RH WIND       PRES   REMARKS
WISE*          RAIN      46  46 100 CALM      30.05S
JONESVILLE*    LGT RAIN  48  48 100 CALM      30.08F
ABINGDON*      LGT RAIN  47  47  98 W5        30.06F
BRISTOL        LGT RAIN  47  45  93 CALM      30.06F FOG
KNOXVILLE      LGT RAIN  51  50  96 NW3       30.06F FOG
OAK RIDGE      LGT RAIN  53  51  93 CALM      30.09S
CROSSVILLE     CLOUDY    50  46  86 NW3       30.06F
NASHVILLE      CLOUDY    41  39  93 N7        30.14F
$$

...KEY TO REMARKS...
VSB - VISIBILITY IN MILES
WCI - WIND CHILL INDEX
HX  - HEAT INDEX

$$


USA.gov is the U.S. government's official web portal to all federal, state and local government web resources and services.